Flag for U.S.A. Weather past 2 weeks in Tampa, Florida, U.S.A.

Now
86 °F

Scattered clouds.


Feels Like: 90 °F
Forecast: 72 / 89 °F
Wind: 12 mph from West

Location: Tampa International Airport

Current Time: May 30, 2015 at 6:58:03 PM

Latest Report: May 30, 2015 at 5:53 PM


Visibility: 10 mi

Pressure: 29.99 "Hg

Humidity: 57%

Dew point: 69 °F

Location of TampaLocation

Historic Weather in Tampa — Graph

°F

Tampa temperature yesterday

Maximum temperature yesterday: 87 °F (at 5:53 PM)
Minimum temperature yesterday: 71 °F (at 4:53 AM)
Average temperature yesterday: 80 °F

Past Weeks' High & Low Weather Summary

 TemperatureHumidityPressure
High93 °F (May 25, 3:53 PM)91% (May 26, 8:53 PM)30.23 "Hg (May 26, 8:53 PM)
Low71 °F (May 29, 4:53 AM)36% (May 27, 6:53 PM)29.94 "Hg (May 20, 6:53 PM)
Average81 °F66%30.11 "Hg
* Reported May 15 4:53 PM — May 30 4:53 PM, Tampa, Weather by CustomWeather, © 2015

Note: Actual official high and low records may vary slightly from our data, if they occured in-between our weather recording intervals... More about our weather records

Advertising

Tampa weather history for previous 24 hours

 ConditionsComfort  
Time TempWeatherWind HumidityBarometerVisibility
4:53 PM
Sat, May 30
88 °FScattered clouds.10 mph54%30.00 "Hg10 mi
3:53 PM85 °FPartly sunny.9 mph55%30.02 "Hg10 mi
2:53 PM85 °FPartly sunny.10 mph57%30.03 "Hg10 mi
1:53 PM85 °FPassing clouds.8 mph57%30.05 "Hg10 mi
12:53 PM86 °FPartly sunny.5 mph49%30.07 "Hg10 mi
11:53 AM86 °FPartly sunny.5 mph53%30.09 "Hg10 mi
10:53 AM84 °FScattered clouds.9 mph57%30.09 "Hg10 mi
9:53 AM81 °FPassing clouds.3 mph62%30.09 "Hg10 mi
8:53 AM78 °FPassing clouds.5 mph71%30.10 "Hg10 mi
7:53 AM75 °FPassing clouds.6 mph76%30.09 "Hg10 mi
6:53 AM72 °FPassing clouds.3 mph84%30.08 "Hg10 mi
5:53 AM73 °FClear.3 mph81%30.07 "Hg10 mi
4:53 AM74 °FClear.3 mph79%30.06 "Hg10 mi
3:53 AM74 °FClear.3 mph79%30.05 "Hg10 mi
2:53 AM75 °FClear.5 mph74%30.06 "Hg10 mi
1:53 AM77 °FPassing clouds.6 mph69%30.07 "Hg10 mi
12:53 AM78 °FPassing clouds.6 mph66%30.08 "Hg10 mi
11:53 PM
Fri, May 29
79 °FPassing clouds.5 mph62%30.09 "Hg10 mi
10:53 PM81 °FPassing clouds.8 mph58%30.09 "Hg10 mi
9:53 PM83 °FPassing clouds.6 mph55%30.07 "Hg10 mi
8:53 PM84 °FPartly sunny.6 mph53%30.06 "Hg10 mi
7:53 PM85 °FPartly sunny.8 mph50%30.04 "Hg10 mi
6:53 PM87 °FPartly sunny.8 mph48%30.03 "Hg10 mi
Weather by CustomWeather, © 2015

See weather overviewHow to use our weather pages